Location: Unspecified
(47.6578°N, 23.5640°E)
Time: 06:52:33
(UTC+03:00)

Envisat - Visible Passes

Search period start: 19 September 2020 00:00
Search period end: 29 September 2020 00:00
Orbit: 764 x 766 km, 98.1° (Epoch: 18 September)

Date Brightness Start Highest point End Pass type
(mag) Time Alt. Az. Time Alt. Az. Time Alt. Az.
19 Sep 6.0 19:51:07 10° SW 19:54:47 20° W 19:58:29 10° NW visible
20 Sep 6.1 06:17:02 10° NE 06:20:11 16° E 06:23:19 10° SE visible
21 Sep 6.6 20:18:49 10° WSW 20:20:34 12° W 20:22:20 10° WNW visible
22 Sep 5.6 06:41:37 10° NE 06:45:55 27° E 06:50:10 10° SSE visible
23 Sep 6.4 06:06:23 10° ENE 06:08:40 13° E 06:10:57 10° ESE visible
24 Sep 6.3 20:06:14 10° WSW 20:09:03 15° W 20:11:53 10° NW visible
25 Sep 5.9 06:30:32 10° NE 06:34:27 22° E 06:38:19 10° SE visible
27 Sep 6.1 19:54:04 10° SW 19:57:33 18° W 20:01:03 10° NW visible
28 Sep 6.1 06:19:34 10° NE 06:22:57 18° E 06:26:19 10° SE visible
